Regional Weather Roundup
Issued by NWS

Home | Current Version | Previous Version | Text Only | Print | Product List | Glossary Off
Versions: 1 2 3 4 5 6 7 8 9 10 11 12 13 14 15 16 17 18 19 20 21 22 23 24 25 26 27

000
ASUS45 KPSR 300910
RWRAZ

ARIZONA HOURLY REGIONAL WEATHER ROUNDUP
NATIONAL WEATHER SERVICE PHOENIX AZ
200 AM MST FRI SEP 30 2016

NOTE: FAIR INDICATES FEW OR NO CLOUDS BELOW 12,000 FEET WITH NO
SIGNIFICANT WEATHER AND/OR OBSTRUCTIONS TO VISIBILITY.

AZZ001>003-036-301000-
NORTHWEST ARIZONA

CITY           SKY/WX    TMP DP  RH WIND       PRES   REMARKS
BULLHEAD CITY  CLEAR     81  48  32 CALM      30.01R
KINGMAN        PTCLDY    68  52  56 SE14      30.18S
$$

AZZ004>008-015-016-018-301000-
NORTH CENTRAL ARIZONA

CITY           SKY/WX    TMP DP  RH WIND       PRES   REMARKS
GRAND CANYON   PTCLDY    52  48  86 E5        30.38F
PRESCOTT       CLEAR     53  51  93 SW3       30.30S
FLAGSTAFF      FOG       49  49 100 CALM      30.41S VSB 1/4
PAYSON         CLEAR     59  52  77 E3        30.33R
PAGE           MOCLDY    62  57  83 S7        30.28S
$$

AZZ009>014-017-301000-
NORTHEAST ARIZONA

CITY           SKY/WX    TMP DP  RH WIND       PRES   REMARKS
WINSLOW        CLEAR     50  49  96 SW6       30.31F
SAINT JOHNS    PTCLDY    51  49  92 W3        30.32F
WINDOW ROCK    FOG       46  44  93 CALM      30.40F VSB 3/4
SHOW LOW       FOG       50  48  93 S3        30.39S VSB<1/4
$$

AZZ023-301000-
GREATER PHOENIX AREA

CITY           SKY/WX    TMP DP  RH WIND       PRES   REMARKS
PHOENIX        CLEAR     78  60  53 E8        30.03R
BUCKEYE        CLEAR     72  54  53 N5        30.04R
LUKE AFB       CLEAR     77  57  49 N6        30.03R
DEER VALLEY    CLEAR     75  52  44 E5        30.05R
SCOTTSDALE     CLEAR     76  54  46 NW3       30.06S
MESA-GATEWAY   CLEAR     72  59  64 SE6       30.06S
$$

AZZ027-028-301000-
SOUTHWEST MARICOPA COUNTY AND PINAL COUNTY

CITY           SKY/WX    TMP DP  RH WIND       PRES   REMARKS
CASA GRANDE    CLEAR     75  61  60 E6        30.07S
GILA BEND      FAIR      75  53  45 E5        30.00R
$$

AZZ503-504-507>509-301000-
SOUTHEAST ARIZONA

CITY           SKY/WX    TMP DP  RH WIND       PRES   REMARKS
TUCSON         CLEAR     71  60  68 SE7       30.14S
DAVIS-MONTHAN  CLEAR     70  60  72 SE9       30.14S
NOGALES        PTCLDY    64  58  80 NE3       30.21S
SIERRA VISTA   MOCLDY    61  58  89 NE2       30.28S
DOUGLAS        CLOUDY    63  61  93 S5        30.26F THUNDER
SAFFORD        PTCLDY    66  61  84 S8        30.21S
$$

AZZ020-021-025-026-031-301000-
SOUTHWEST ARIZONA

CITY           SKY/WX    TMP DP  RH WIND       PRES   REMARKS
YUMA           CLEAR     81  57  43 CALM      29.97
$$

CAZ031-033-041-043-047-048-061-301000-
SOUTHERN CALIFORNIA

CITY           SKY/WX    TMP DP  RH WIND       PRES   REMARKS
DOWNTOWN L.A.  CLEAR     68  62  81 CALM      30.02S
L.A. AIRPORT   CLEAR     69  63  81 S5        30.03S
SAN DIEGO      PTCLDY    73  66  78 NW3       30.03S
BURBANK        CLEAR     72  56  57 NW5       30.04S
ONTARIO        CLEAR     72  53  51 CALM      30.05S
RIVERSIDE      CLEAR     71  54  54 W3        30.05S
PALM SPRINGS   PTCLDY    79  56  45 SW3       29.99S
EL CENTRO NAS  CLEAR     76  53  44 W8        29.97R
IMPERIAL       CLEAR     77  57  50 SW5       29.94S
BLYTHE         CLEAR     75  45  34 NW3       29.98S
NEEDLES        PTCLDY    81  48  31 CALM      30.01S
$$

NVZ020-UTZ003-301000-
SOUTHERN NEVADA-UTAH

CITY           SKY/WX    TMP DP  RH WIND       PRES   REMARKS
LAS VEGAS      PTCLDY    75  42  30 S5        30.07S
SALT LAKE CITY PTCLDY    66  50  56 SE7       30.18S
$$

NMZ009-TXZ055-301000-
NEW MEXICO-WEST TEXAS

CITY           SKY/WX    TMP DP  RH WIND       PRES   REMARKS
ALBUQUERQUE    CLOUDY    58  56  93 SE13      30.39F
EL PASO        CLOUDY    71  44  37 E3        30.25F
$$


........................KEY........................
SKY/WX - SKY CONDITION/WEATHER
TMP    - TEMPERATURE IN FAHRENHEIT
DP     - DEW POINT IN FAHRENHEIT
RH     - RELATIVE HUMIDITY IN PERCENT
WIND   - DIRECTION AND SPEED IN MILES PER HOUR (MPH)
VRB    - VARIABLE WIND DIRECTION
PRES   - MEAN SEA LEVEL PRESSURE IN INCHES OF MERCURY
         F - FALLING PRESSURE   R - RISING PRESSURE
         S - STEADY PRESSURE
VSB    - VISIBILITY IN MILES
HX     - HEAT INDEX IN FAHRENHEIT
WCI    - WIND CHILL INDEX IN FAHRENHEIT
TC     - TEMPERATURE IN CELSIUS WHICH IS ALSO KNOWN AS
         TEMPERATURE IN CENTIGRADE
AFB    - AIR FORCE BASE
         LUKE AFB IS LUKE AIR FORCE BASE
         DAVIS-MONTHAN IS DAVIS-MONTHAN AIR FORCE BASE
NAS    - NAVAL AIR STATION
         EL CENTRO NAS IS EL CENTRO NAVAL AIR STATION
N/A    - NOT AVAILABLE





USA.gov is the U.S. government's official web portal to all federal, state and local government web resources and services.